Voltar ao catálogo

DELTA 1 DEB

AtivoUNKNOWN
NORAD 7194·DEBRIS·🇺🇸 United States

Lançado Nov 6, 1973 de Vandenberg Space Force Base

Loading…

Próximas Passagens (próximas 24 horas)

TLE

AtualizadoSource: Space-Track

Época: Sep 14, 2026, 08:11 UTC

1 07194U 73086FC  26257.34110830  .00000158  00000-0  30914-2 0  9990
2 07194 102.6747 291.1799 0538667  22.7160 351.0882 11.49965244214112

Acompanhe DELTA 1 DEB em tempo real com AllMySat

Download on the App Store